CZ-8 R/B

Satellite information

Favourite Embed

Satellite Type and Status

ROCKET BODYIN ORBIT

Key statistics

Satellite CZ-8 R/B at a glance.

Uptime

224

Days in orbit

Revolutions

≈ 14.1

Per day

Orbit

LEO

Low Earth Orbit

Inclination

89.0

Latest

Satellite identification and parameters

Extended collection of information and parameters for CZ-8 R/B.

Object identification

Identified? True

Debris? False

Object name: CZ-8 R/B

International designator: 2025-046U

Object number (NORAD): 63177

Object ID (CCSDS): 63177

Country: PEOPLES REPUBLIC OF CHINA (PRC)

Current information (Y/N): Y

RCS size: LARGE

Orbital parameters

Period: 102.158 minutes

Inclination: 88.9754 deg

SMA: 7238.951 km

Apoapsis: 907.204 km

Periapsis: 814.428 km

RAAN: 323.4272 deg

Eccentricy: 0.00640809

Argument of periapsis: 128.142 deg

Mean anomaly: 232.5564 deg

Mean motion: 14.09578599 rev/day

Mean motion (dot): 0.0000025 rev/day2

B* drag term: 0.00013177099 1/REarth

Two-line elements (TLE)

Creation date: Oct. 21, 2025, 3:26 a.m.

Reference frame: TEME

Reference center: EARTH

Epoch: Oct. 20, 2025, 8:32 p.m. UTC

TLE line 0: 0 CZ-8 R/B

TLE line 1: 1 63177U 25046U 25293.85608820 .00000250 00000-0 13177-3 0 9998

TLE line 2: 2 63177 88.9754 323.4272 0064081 128.1420 232.5564 14.09578599 41376

Live tracking on map

Real-time ground track for satellite CZ-8 R/B.

In-orbit conjunctions

A list of the most updated potential collisions computed for object CZ-8 R/B.

Target Orbit TCA Probability of collision Miss distance Type
CZ-6A DEB SSO 2025-06-06 10:05:09 0.0001457534 122.0 (m) DEBRIS

Associated space launch

18 Low Earth Orbit communication satellites with Ku, Q and V band payloads for the G60 constellation operated by Shanghai Spacecom Satellite Technology (SSST) with funding backed by the Shanghai local government. Initial constellation will consist of 1296 satellites by 2027 with long term plans to expand it to 12000 satellites. First launch from the Wenchang Commercial Space Launch Site's LC-1.

CZ-8 R/B was lifted into orbit during the mission ‘Long March 8 | G60 Polar Group 05’, on board a Long March 8 space rocket.

The launch took place on March 11, 2025, 4:38 p.m. from Commercial LC-1.

For more information about the launch, click the button.

Launch to space Long March 8 | G60 Polar Group 05
Long March 8 | G60 Polar Group 05

Agency: N/A

Status: Launch Successful

Launch date: March 11, 2025, 4:38 p.m. UTC

Rocket: Long March 8

Launch pad: Commercial LC-1

Location: Wenchang Space Launch Site, People's Republic of China

...

Latest news about this satellite

News about space launch
Long March 8 launches Thousand Sails satellites from commercial spaceport

HELSINKI — A new group of 18 satellites entered orbit Tuesday for the Thousand Sails constellation with the first launch from a new commercial launch pad. A Long March 8 […] The post Long March 8 launches Thousand Sails satellites from commercial spacepo...

News about space launch
Launch Roundup: SpaceX, Rocket Lab, and Firefly set to launch amid busy launch manifest

This week, a busy launch manifest will see SpaceX launch the Crew-10 and Starlink Group… The post Launch Roundup: SpaceX, Rocket Lab, and Firefly set to launch amid busy launch manifest appeared first on NASASpaceFlight.com.


Newsletter sign-up

Weekly statistics, charts and insights to help you stay on top of the space industry.